Observer details:
046 Klet.  Observers J. Ticha, M. Tichy, Z. Moravec.  0.57-m f/5.2 reflector
    + CCD.
108 Montelupo.  Observers M. Tombelli, A. Boattini, L. Tesi, D. Guidetti,
    G. Forti, E. Masotti.  Measurers M. Tombelli, A. Boattini, L. Tesi,
    S. Bartolini, G. Forti.  0.30-m f/5.7 Schmidt-Cassegrain + CCD.
113 Volkssternwarte Drebach, Schoenbrunn.  Observers G. Lehmann, J. Kandler,
    A. Knoefel, C. Mueller.  0.50-m f/4.0 reflector + CCD.
118 Modra.  Observers L. Kornos, P. Koleny, J. Toth.  0.6-m f/5.5 reflector
    + CCD.
151 Eschenberg Observatory, Winterthur.  Observer M. Griesser.  0.25-m f/8.0
    reflector + CCD.
540 Linz.  Observer E. Meyer.  0.3-m f/5.2 Schmidt-Cassegrain + CCD.
557 Ondrejov.  Observers P. Pravec, P. Kusnirak.  0.65-m f/3.6 reflector + CCD.
595 Farra d'Isonzo.  Observers M. Spolaor, E. Pettarin, A. Toso.  0.40-m f/4.5
    reflector + CCD
611 Starkenburg.  Observers S. Kluegl, R. Stoss.  0.45-m f/4.4 reflector + CCD.
658 Dominion Astrophysical Observatory.  Observer D. D. Balam.  1.82-m
    reflector + CCD.
670 Camarillo.  Observer J. E. Rogers.  0.30-m f/6.7 Helin Telescope + CCD.
704 Lincoln Laboratory ETS, New Mexico.  Observers M. Blythe, F. Shelly,
    M. Bezpalko, M. Elowitz.  Measurers J. Stuart, H. Viggh, R. Sayer.  1.0-m
    f/2.15 reflector + CCD.
713 Thornton.  Observer R. A. Koff.  0.20-m f/10 Schmidt-Cassegrain + CCD.
719 Etscorn Observatory.  Observers D. A. Klinglesmith III, R. Huber.  0.355-m
    Schmidt-Cassegrain + CCD.
734 Farpoint Observatory.  Observers G. Hug, G. Bell.  0.30-m
    Schmidt-Cassegrain + CCD.
739 Sunflower Observatory, Olathe.  Observer L. Robinson.  0.25-m
    Schmidt-Cassegrain + CCD.
946 Ametlla de Mar.  Observer J. Nomen.  0.30-m f/5.0 reflector + CCD.

Orbital elements:
1999 RB32                                                            PHA 0.044
Epoch 1999 Aug. 30.0 TT = JDT 2451420.5                 Williams
M 352.57571              (2000.0)            P               Q
n   0.26146878     Peri.   39.28675     +0.98532849     -0.16723487
a   2.4220856      Node   330.28763     +0.13410018     +0.88208550
e   0.5714688      Incl.    3.94070     +0.10556947     +0.44040626
P   3.77           H   20.0           G   0.15
From 95 observations 1999 Sept. 8-11.

Ephemeris:
1999 RB32                a,e,i = 2.42, 0.57, 4                   q = 1.0379
Date    TT    R. A. (2000) Decl.     Delta      r     Elong.  Phase     V
1999 09 09    01 08.00   +26 13.0    0.076    1.064   136.9    40.3    16.1
1999 09 14    02 17.39   +36 35.7    0.079    1.052   123.3    53.1    16.6
1999 09 19    03 26.49   +42 41.6    0.090    1.043   113.2    62.2    17.1
1999 09 24    04 24.13   +45 12.9    0.104    1.039   107.1    67.4    17.6
1999 09 29    05 07.29   +45 47.4    0.121    1.038   104.1    69.4    17.9
1999 10 04    05 38.22   +45 31.3    0.139    1.041   103.4    69.2    18.2
1999 10 09    06 00.06   +44 56.7    0.156    1.048   104.2    67.5    18.5
1999 10 14    06 15.24   +44 17.1    0.174    1.059   106.1    64.8    18.6
1999 10 19    06 25.43   +43 38.0    0.191    1.074   109.0    61.3    18.7
1999 10 24    06 31.68   +43 01.0    0.208    1.091   112.5    57.4    18.8
1999 10 29    06 34.66   +42 26.5    0.224    1.112   116.7    53.0    18.9
1999 11 03    06 34.75   +41 53.6    0.240    1.136   121.4    48.3    19.0
1999 11 08    06 32.27   +41 20.6    0.256    1.162   126.5    43.3    19.0
1999 11 13    06 27.59   +40 45.7    0.273    1.190   132.1    38.1    19.1
1999 11 18    06 21.17   +40 07.2    0.290    1.220   138.1    32.8    19.1
1999 11 23    06 13.51   +39 23.9    0.310    1.252   144.2    27.5    19.2
1999 11 28    06 05.12   +38 35.3    0.331    1.285   150.4    22.3    19.2
1999 12 03    05 56.49   +37 41.6    0.356    1.320   156.5    17.3    19.3
1999 12 08    05 48.14   +36 43.8    0.384    1.355   162.1    12.9    19.3
1999 12 13    05 40.50   +35 43.3    0.415    1.392   166.5     9.5    19.4
1999 12 18    05 33.92   +34 42.3    0.451    1.429   168.6     7.9    19.6
1999 12 23    05 28.58   +33 42.6    0.491    1.466   167.3     8.5    19.9
1999 12 28    05 24.55   +32 45.9    0.535    1.504   163.6    10.6    20.2
2000 01 02    05 21.83   +31 53.0    0.583    1.542   159.1    13.1    20.5
2000 01 07    05 20.37   +31 04.7    0.636    1.581   154.3    15.7    20.9
2000 01 12    05 20.12   +30 21.2    0.693    1.619   149.5    18.0    21.2
2000 01 17    05 20.96   +29 42.5    0.754    1.658   144.8    20.0    21.5
2000 01 22    05 22.78   +29 08.4    0.819    1.696   140.2    21.8    21.8
2000 01 27    05 25.46   +28 38.3    0.887    1.734   135.8    23.3    22.0

Gareth V. Williams           (C) Copyright 1999 MPC           M.P.E.C. 1999-R30

Read MPEC 1999-R29 Read MPEC 1999-R31


Our Web policy. Index to the CBAT/MPC/ICQ pages.

